Current Version              Previous Version:    01  02  03  04  05  06  07  08  09  10  11  12  13  14  15  16  17  18  19  20  21  22  23  24  25  26  27  28  29  30  
   31  32  33  34  35  36  37  38  39  40  41  42  43  44  45  46  47  48  49  50  51  52  53  54  55  56  57  58  59  60  

[Printable]
203
ASUS44 KFWD 260110
RWRTX
NORTH TEXAS HOURLY WEATHER ROUNDUP
NATIONAL WEATHER SERVICE FORT WORTH TX
800 PM CDT FRI JUL 25 2014

NOTE: "FAIR" INDICATES FEW OR NO CLOUDS BELOW 12,000 FEET WITH NO
SIGNIFICANT WEATHER AND/OR OBSTRUCTIONS TO VISIBILITY.

TXZ118-119-260200-
DALLAS/FORT WORTH METROPLEX

CITY           SKY/WX    TMP DP  RH WIND       PRES   REMARKS
DFW AIRPORT    PTCLDY    96  63  33 S9        29.90S HX  97
DALLAS LOVE    PTCLDY    96  66  37 SE16      29.90R HX  99
FTW MEACHAM    CLEAR     96  65  35 S13       29.90R HX  98
DAL-EXECUTIVE  CLEAR     94  67  41 SE10      29.91R HX  97
FTW-ALLIANCE   PTCLDY    92  65  40 S7        29.90R HX  94
FTW-NAS-JRB    PTCLDY    98  62  30 S13       29.94S HX  99
FTW-SPINKS     CLEAR     94  64  36 S8        29.93R HX  96
ARLINGTON      PTCLDY    95  64  35 S10       29.91R HX  97
ADDISON        PTCLDY    95  63  34 SE12G20   29.91S HX  96
MESQUITE       CLEAR     91  70  49 SE9       29.92R HX  97
LANCASTER      CLEAR     92  68  45 SE9       29.93R HX  95
$$

TXZ091>094-102>105-117-120-121-131>134-260200-
NORTH CENTRAL TEXAS

CITY           SKY/WX    TMP DP  RH WIND       PRES   REMARKS
SHRMAN/DENISON CLEAR     93  66  41 SE12      29.92S HX  96
GAINESVILLE    CLEAR     91  68  46 SE8       29.93S HX  94
BOWIE          CLEAR     89  70  53 CALM      29.91S HX  94
BRIDGEPORT     CLEAR     93  59  32 S9        29.92S HX  92
DECATUR        CLEAR     93  62  34 SE9       29.92S HX  93
DENTON         CLEAR     92  65  40 S9        29.90R HX  94
MCKINNEY       CLEAR     92  69  47 SE8       29.91R HX  97
GREENVILLE     CLEAR     90  70  51 SE9       29.93S HX  95
ROCKWALL       CLEAR     91  71  52 SE7       29.91S HX  97
TERRELL        CLEAR     92  69  47 SE13      29.93S HX  97
WAXAHACHIE     CLEAR     92  62  36 SE8       29.93S HX  93
CLEBURNE       CLEAR     91  68  46 S8        29.94S HX  95
GRANBURY       CLEAR     96  63  33 SE7       29.92S HX  97
$$

TXZ083>090-098>101-113>116-127>130-139>142-154-155-260200-
WESTERN NORTH TEXAS

CITY           SKY/WX    TMP DP  RH WIND       PRES   REMARKS
WICHITA FALLS  CLEAR     93  62  35 S10       29.87R HX  93
WF-KICKAPOO    CLEAR     97  56  25 S7        29.89S HX  95
VERNON         CLEAR     98  51  20 S7        29.88S HX  95
ABILENE        CLEAR     93  61  34 S13       29.95S HX  93
ABILENE-DYESS  CLEAR     92  64  39 SE12      29.94R HX  94
BRECKENRIDGE   CLEAR     97  56  26 S7        29.91S HX  95
GRAHAM         CLEAR     98  55  24 SE5       29.88S HX  96
MINERAL WELLS  CLEAR     93  62  35 SE10      29.90R HX  93
STEPHENVILLE   CLEAR     92  61  35 S7        29.97S HX  92
COMANCHE       CLEAR     91  63  40 SE8       29.95S HX  92
BROWNWOOD      CLEAR     91  63  38 SE8       29.95R HX  92
COLEMAN        CLEAR     93  61  34 SE10      29.96R HX  93
BRADY          CLEAR     91  63  38 E7        29.96S HX  92
$$

TXZ143>147-156>162-174-175-260200-
CENTRAL TEXAS

CITY           SKY/WX    TMP DP  RH WIND       PRES   REMARKS
WACO           PTCLDY    92  67  43 SE10      29.93R HX  95
WACO-TSTC      CLEAR     91  64  40 S7        29.93R HX  93
WACO-MCGREGOR  CLEAR     93  64  38 S13       29.94R HX  95
HILLSBORO      CLEAR     92  64  38 SE9       29.93R HX  94
CORSICANA      CLEAR     90  70  51 SE14      29.95R HX  95
MEXIA          CLEAR     87  72  60 SE5       29.94S HX  94
CAMERON        CLEAR     91  71  52 SE3       29.94R HX  97
TEMPLE         CLEAR     90  66  45 SE10      29.95S HX  92
KILLEEN        PTCLDY    90  64  43 SE10      29.95R HX  91
KILLEEN-SKYLRK CLEAR     91  66  43 SE12G18   29.95R HX  94
FORT HOOD      CLEAR     93  67  42 SE9       29.95R HX  96
GATESVILLE     CLEAR     91  68  46 SE6       29.96R HX  95
HAMILTON       CLEAR     91  62  38 S10G16    29.97S HX  91
LAMPASAS       CLEAR     91  67  46 SE6       29.96R HX  94
$$

TXZ095>097-106>112-122>126-135>138-148>153-164>167-260200-
EAST TEXAS

CITY           SKY/WX    TMP DP  RH WIND       PRES   REMARKS
PARIS          CLEAR     88  70  55 SE7       29.95S HX  92
SULPHUR SPRNGS CLEAR     89  71  55 S7        29.96S HX  95
CLARKSVILLE    PTCLDY    88  73  61 SE5       29.95R HX  96
MOUNT PLEASANT CLEAR     85  74  70 SE5       29.96S HX  93
GILMER         CLEAR     88  75  66 CALM      29.97S HX  97
MINEOLA        CLEAR     90  73  58 SE3       29.96S HX  98
TYLER          CLEAR     88  71  57 S6        29.96S HX  94
LONGVIEW       PTCLDY    87  74  64 S3        29.95F HX  95
MARSHALL       PTCLDY    89  79  73 CALM      29.98S HX 104
ATHENS         CLEAR     86  73  66 SE6       29.95R HX  93
JACKSONVILLE   PTCLDY    87  71  58 CALM      30.00S HX  92
HENDERSON      PTCLDY    86  73  65 CALM      29.97S HX  93
NACOGDOCHES    CLEAR     84  77  79 SE3       29.97S HX  94
LUFKIN         CLEAR     90  77  65 CALM      29.97R HX 103
$$

SUPPLEMENTAL OBSERVATIONS (CENTRAL)

CITY           SKY/WX    TMP DP  RH WIND       PRES   REMARKS
PAT MAYSE LAKE   N/A     88  73  62 SE8         N/A  HX  96
GREENVILLE       N/A     88  70  55 SE5         N/A  HX  92
CEDAR HILL       N/A     93  64  38 SE7         N/A  HX  95
PALESTINE        N/A     84  72  65 CALM        N/A
MCGREGOR         N/A     90  64  43 S8          N/A  HX  91
TEMPLE           N/A     90  68  48 SE7         N/A  HX  93
$$

SUPPLEMENTAL OBSERVATIONS (WEST)

CITY           SKY/WX    TMP DP  RH WIND       PRES   REMARKS
MILLERS CREEK    N/A     97  54  23 S14         N/A  HX  94
POSSUM KINGDOM   N/A     97  55  24 S8          N/A  HX  95
GRANBURY         N/A     95  63  34 S8          N/A  HX  96
HAMBY            N/A     93  57  29 S13         N/A  HX  92
IVIE RESERVOIR   N/A     93  61  33 SE8         N/A  HX  93
COLORADO BEND    N/A     90  63  40 E10         N/A  HX  90
$$

SUPPLEMENTAL OBSERVATIONS (EAST)

CITY           SKY/WX    TMP DP  RH WIND       PRES   REMARKS
CLARKSVILLE      N/A     86  73  66 SE3         N/A  HX  93
TEXARKANA        N/A     84  77  79 CALM        N/A  HX  94
LINDEN           N/A     88  77  70 CALM        N/A  HX 100
GILMER           N/A     86  72  62 S2          N/A  HX  92
HENDERSON        N/A     88  73  62 S3          N/A  HX  96
LUFKIN           N/A     88  75  66 MISG        N/A  HX  97
N SABINE NF      N/A     82  73  74 MISG        N/A
S SABINE NF      N/A     82  75  78 CALM        N/A
$$

SUPPLEMENTAL OBSERVATIONS ARE A COLLECTION OF AUTOMATED INSTRUMENTS
THAT ARE MAINTAINED BY A VARIETY OF FEDERAL AND STATE AGENCIES.
CERTAIN ELEMENTS...SUCH AS HUMIDITY VALUES AND SUSTAINED WIND
SPEEDS...MAY BE APPROXIMATED.